Location: Recife
(8.0585°S, 34.8848°W)
Time: 12:23:34
(UTC-03:00)

Vanguard 1 Rocket - Pass Details

Date: 18 April 2026
Orbit: 655 x 4212 km, 34.3° (Epoch: 12 May)

Event Time Altitude Azimuth Distance (km) Brightness Sun altitude
Rises 17:40:49 0° 247° (WSW) 5,557 12.5 -6.9°
Reaches altitude 10° 17:43:53 10° 251° (WSW) 4,926 12.2 -7.6°
Maximum altitude 17:59:14 57° 325° (NW) 3,855 10.8 -11.4°
Drops below altitude 10° 18:23:59 10° 38° (NE) 7,405 11.7 -17.4°
Sets 18:30:08 0° 43° (NE) 8,380 12.0 -18.9°
